Regional Weather Roundup
Issued by NWS Mt. Holly, NJ

Home | Current Version | Previous Version | Text Only | Print | Product List | Glossary On
Versions: 1 2 3 4 5 6 7 8 9 10 11 12 13 14 15 16 17 18 19 20 21 22 23 24 25 26 27 28 29 30 31 32 33 34 35 36 37 38 39 40 41 42 43 44 45 46 47 48 49 50
000
ASUS41 KPHI 261212
RWRPHI

REGIONAL WEATHER ROUNDUP
NATIONAL WEATHER SERVICE MOUNT HOLLY NJ
700 AM EST SUN FEB 26 2017

NOTE:  "FAIR" INDICATES FEW OR NO CLOUDS BELOW 12,000 FEET WITH NO
SIGNIFICANT WEATHER AND/OR OBSTRUCTIONS TO VISIBILITY.

 * = STATION DOES NOT REPORT PRECIPITATION (E.G. RAIN, SNOW, ETC.)
        OR FOG.

NJZ015>026-261300-
SOUTHERN NEW JERSEY

CITY           SKY/WX    TMP DP  RH WIND       PRES   REMARKS
POMONA         CLEAR     36  21  54 W12       29.95R WCI  28
6HR MIN TEMP:  35; 6HR MAX TEMP:  44;

WILDWOOD*      MOCLDY    38  23  55 NW12G20   29.98R WCI  30
MILLVILLE      MOCLDY    36  21  54 NW13      29.97R WCI  27
WRIGHTSTOWN    CLOUDY    36  21  54 NW12      29.92R WCI  27
MOUNT HOLLY    MOCLDY    36  17  46 W12G26    29.95R WCI  28
TRENTON        CLOUDY    36  19  50 NW13G24   29.93R WCI  27
6HR MIN TEMP:  36; 6HR MAX TEMP:  42;


$$
NJZ001>014-261300-
NORTHERN NEW JERSEY

CITY           SKY/WX    TMP DP  RH WIND       PRES   REMARKS
SUSSEX         CLOUDY    34  17  50 NW10G18   29.90R WCI  26
ANDOVER*         N/A     33  17  51 VRB7G18   29.91R WCI  27
MORRISTOWN     MOCLDY    36  19  51 W14G24    29.91R WCI  27
NEWARK         MOCLDY    37  18  46 NW17G25   29.91R WCI  27
TETERBORO      CLOUDY    38  19  46 W10G21    29.89R WCI  31
CALDWELL       CLOUDY    36  17  46 NW12G20   29.92R WCI  28
SOMERVILLE     CLOUDY    36  16  44 NW17G25   29.92R WCI  26
ALLAIRE*       CLOUDY    36  21  54 W16       29.92R WCI  26
TOMS RIVER*    CLEAR     35  21  56 NW9       29.94R WCI  28

$$
PAZ043-044-047-054-055-060>062-066>071-261300-
EASTERN PENNSYLVANIA

CITY           SKY/WX    TMP DP  RH WIND       PRES   REMARKS
PHILADELPHIA   MOCLDY    37  17  44 NW20      29.98R WCI  27
6HR MIN TEMP:  37; 6HR MAX TEMP:  45;

NORTH PHILA    CLOUDY    37  19  48 W16G25    29.97R WCI  28
BLUE BELL*     CLOUDY    34  19  55 W10       29.95R WCI  26
DOYLESTOWN     CLOUDY    35  21  56 NW13G23   29.93R WCI  26
QUAKERTOWN*    CLOUDY    32  19  59 NW8       29.95R WCI  25
PERKASIE*      CLOUDY    32  19  59 NW9G23    29.95R WCI  24
POTTSTOWN      CLOUDY    33  18  53 W14G22    29.98R WCI  23
LANCASTER      CLOUDY    33  19  56 W17G24    29.99R WCI  22
COATESVILLE    CLOUDY    32  18  55 NW18G26   29.98R WCI  20
READING        CLOUDY    34  19  54 W15       29.97R WCI  24
6HR MIN TEMP:  34; 6HR MAX TEMP:  39;

ALLENTOWN      CLOUDY    35  16  45 NW13G23   29.95R WCI  26
6HR MIN TEMP:  35; 6HR MAX TEMP:  40;

MOUNT POCONO   CLOUDY    26  17  68 W14G25    29.84R WCI  14
6HR MIN TEMP:  26; 6HR MAX TEMP:  31; 6HR PCP: TRACE;

HAZLETON       CLOUDY    30  18  59 W14G20    29.92R WCI  20
LEHIGHTON      CLOUDY    34  18  51 W7        29.96R WCI  28
WILKES BARRE   CLOUDY    31  17  56 NW14G23   29.92R WCI  21

$$
DEZALL-MDZ008-012-015-019-020-261300-
DELAWARE AND EASTERN MARYLAND

CITY           SKY/WX    TMP DP  RH WIND       PRES   REMARKS
WILMINGTON     CLOUDY    35  19  52 NW24      30.01R WCI  23
6HR MIN TEMP:  35; 6HR MAX TEMP:  43;

DOVER          CLEAR     35  21  56 W18G24    29.99R WCI  25
GEORGETOWN     CLEAR     37  22  54 NW6G17    30.01R WCI  32
6HR MIN TEMP:  37; 6HR MAX TEMP:  47;

EASTON         CLOUDY    39  21  48 NW15G21   30.05S WCI  31
ABERDEEN       CLOUDY    34  18  51 W5        30.04R WCI  30
PATUXENT       PTCLDY    36  21  54 NW16      30.05R WCI  26
OCEAN CITY     CLEAR     37  24  59 NW8       30.00R WCI  31
WALLOPS ISLAND CLEAR     37  24  59 NW12      30.02R WCI  29
CAMBRIDGE      CLOUDY    37  21  52 W8G14     30.04R WCI  31
SALISBURY      CLEAR     37  23  56 NW10      30.01R WCI  30

$$
PAZ001-021-NYZ056-072-MDZ011-DCZ001-261300-
OTHER NEARBY LOCATIONS

CITY           SKY/WX    TMP DP  RH WIND       PRES   REMARKS
HARRISBURG     MOCLDY    33  16  49 NW17G26   30.02R WCI  22
STATE COLLEGE  MOCLDY    27  12  54 W9G18     29.98R WCI  17
WILLIAMSPORT   FLURRIES  32  18  56 W12       29.98R WCI  23
BINGHAMTON     LGT SNOW  23  19  85 W7        29.86R FOG     WCI  15
NEW YORK CITY  CLOUDY    36  18  48 NW12G24   29.91R WCI  28
BALTIMORE      MOCLDY    35  20  54 NW18G25   30.03R WCI  24
WASHINGTON DC  PTCLDY    36  16  44 NW12G20   30.07R WCI  28

$$



USA.gov is the U.S. government's official web portal to all federal, state and local government web resources and services.